Terug naar catalogus

STARLINK-32776

ActiefCommunicatieVLEO
NORAD 63032·PAYLOAD·🇺🇸 United States

Gelanceerd Feb 18, 2025 vanaf Cape Canaveral Space Force Station

Loading…

Volgende Passages (komende 24 uur)

TLE

VersSource: CelesTrak SupGP

Epoch: Sep 15, 2026, 03:08 UTC

1 63032C 25034D   26258.13104167 -.00011438  00000+0 -33799-3 0  2584
2 63032  53.1578  94.7600 0001113  90.4249 119.8553 15.34390573    18

Volg STARLINK-32776 in realtime met AllMySat

Download on the App Store